Theta_e
310 310 310 310 310 310 310 310 310 311 311 311 312 312 312 313 313 314 314 314 313 312 312 312 313 314 315 316 317 315 307 308 312 311 314 315 314 315 315 315 315 315 315 314 315
310 310 309 309 310 310 310 311 311 311 312 312 312 313 313 314 314 315 314 313 313 312 311 312 313 314 315 316 317 311 306 308 310 312 314 315 314 315 315 313 314 314 314 314 314
310 309 309 309 310 310 311 311 312 312 312 312 313 314 315 316 318 315 312 312 311 311 311 312 314 314 314 316 317 312 310 310 314 314 314 314 314 314 314 313 313 314 314 313 313
309 309 309 309 310 311 311 312 312 312 312 313 315 317 319 319 316 314 312 312 311 311 312 313 315 315 313 313 315 315 315 314 315 315 315 314 314 314 314 314 313 313 312 313 313
309 308 309 309 310 311 312 311 311 312 314 317 319 318 318 317 318 319 313 313 312 312 312 313 313 314 313 313 313 314 314 314 315 314 313 313 312 312 313 312 312 311 311 312 312
308 309 309 310 311 312 311 311 312 315 318 318 317 317 317 314 317 317 318 316 315 314 312 312 313 314 314 313 312 312 312 312 313 313 312 312 311 312 311 311 311 311 311 311 310
309 309 310 311 311 310 310 313 316 318 318 317 317 318 318 317 317 316 316 316 317 313 311 312 313 314 313 312 312 312 311 308 310 311 310 311 311 309 312 310 310 309 309 309 309
310 310 311 310 310 311 313 316 318 317 317 317 318 319 318 317 317 316 316 315 314 312 311 312 313 314 314 313 310 310 309 310 310 310 311 312 313 312 309 310 308 308 308 308 308
311 311 311 311 313 315 317 317 317 317 317 318 319 318 317 315 315 315 314 313 313 313 313 313 314 313 312 308 308 306 310 309 309 310 310 310 311 311 310 309 304 304 304 305 305
316 316 315 316 317 317 316 316 317 318 319 320 319 317 317 315 313 313 312 312 312 312 312 313 312 307 305 306 312 310 309 308 309 311 310 311 310 308 305 306 301 301 301 302 303
316 316 316 316 315 315 316 318 319 320 319 318 317 317 315 315 313 311 311 311 311 311 308 309 306 308 308 306 308 308 309 310 309 309 311 309 308 306 303 301 300 300 299 300 301
316 316 316 315 316 316 317 320 320 319 319 319 320 317 316 314 311 310 311 311 311 309 307 308 307 307 307 306 308 308 309 309 308 309 308 309 309 303 301 300 300 299 299 299 300
317 316 316 316 316 317 317 318 320 321 319 320 319 319 319 316 315 313 311 311 310 308 307 309 311 308 308 308 308 308 308 309 311 309 308 307 308 305 300 299 299 299 299 299 300
319 317 316 316 316 316 318 318 321 321 316 315 316 318 318 318 316 318 313 313 309 309 308 308 309 310 308 309 308 310 308 310 311 309 311 307 311 308 302 300 299 298 299 299 300
321 319 317 316 317 319 317 318 321 318 322 315 313 313 315 318 312 310 309 311 309 310 309 314 310 309 311 311 309 312 308 308 308 307 308 308 308 306 302 301 299 297 298 299 300
324 320 318 317 317 318 319 321 320 319 323 315 308 308 311 309 308 308 309 310 311 309 308 311 308 308 310 308 309 306 308 306 304 305 310 309 310 309 305 304 299 298 299 299 299
321 322 319 318 318 318 321 320 320 321 316 313 309 307 309 306 307 307 307 308 310 312 310 309 309 308 309 308 307 309 310 313 311 310 313 307 307 308 306 302 301 298 299 299 298
321 323 321 319 318 318 321 319 321 320 318 308 308 306 308 306 306 306 307 309 306 308 308 311 315 308 307 309 309 308 310 312 311 309 310 308 312 312 301 299 300 301 300 299 298
320 322 322 321 319 319 317 323 321 319 317 309 309 307 307 306 306 307 306 308 309 305 313 312 315 306 307 307 308 308 310 308 307 296 306 309 308 304 299 298 297 298 299 299 298
320 321 320 320 320 321 319 320 319 318 315 310 315 309 309 310 307 306 306 306 308 306 310 312 314 309 306 306 305 308 306 311 307 307 306 307 308 307 303 299 296 296 297 299 299
322 319 319 320 320 319 322 319 319 319 316 314 316 312 309 313 308 306 307 308 308 307 310 309 312 310 308 308 307 307 309 306 307 304 304 302 305 303 304 300 298 297 299 300 300
319 316 318 320 318 317 321 319 319 318 314 314 313 315 313 313 311 307 309 310 309 309 311 309 310 308 310 306 305 306 307 307 310 308 304 305 309 301 302 300 299 299 301 301 301
315 314 314 318 318 318 315 316 316 313 315 315 315 314 313 313 316 312 311 308 307 310 312 309 309 304 307 307 305 307 305 305 305 303 304 306 307 301 300 300 300 300 302 302 301
313 311 309 311 312 314 314 314 315 312 313 314 315 312 313 314 315 313 310 308 308 308 310 310 307 307 313 308 307 308 306 305 304 304 304 309 307 305 302 301 299 300 302 302 301
311 310 310 309 309 310 310 309 313 312 310 311 311 313 313 313 314 314 309 307 306 308 305 308 310 304 302 303 303 304 306 306 306 308 308 309 307 304 303 301 302 304 302 301 300
305 306 306 306 311 310 309 306 308 308 307 307 310 310 312 310 310 309 308 308 309 304 306 302 304 301 299 301 302 303 303 304 305 303 303 303 303 299 302 303 301 302 302 300 299
303 303 302 305 308 311 311 309 308 309 308 308 307 309 310 311 308 305 307 306 307 306 305 304 302 301 307 297 301 308 304 303 303 301 303 304 305 293 296 297 299 299 299 299 298
Wind_Speed
7 6 6 6 6 6 6 7 7 7 7 8 9 10 10 12 13 14 14 6 4 5 5 4 4 1 1 2 3 2 4 1 3 5 2 2 5 1 7 5 2 3 5 10 11
9 9 9 9 9 8 8 8 9 9 9 10 11 11 12 12 14 14 7 5 4 4 4 4 2 1 2 2 2 4 3 6 3 3 2 4 1 7 5 7 4 7 8 11 8
12 11 11 11 11 10 10 10 10 11 11 12 12 12 12 12 13 3 2 2 3 5 5 3 2 1 1 1 0 2 4 3 2 5 4 4 5 2 2 6 2 5 12 8 6
14 13 13 13 12 12 12 12 12 12 12 12 12 12 12 9 4 2 4 4 5 5 4 3 3 1 1 0 2 0 5 5 3 2 3 4 6 5 7 4 11 10 2 3 5
16 15 15 15 14 14 14 14 14 14 13 13 13 13 11 7 8 9 8 7 6 7 8 6 5 5 3 3 2 3 3 5 8 10 11 11 9 7 19 13 2 2 2 4 7
18 17 17 17 16 16 15 15 15 14 14 14 13 12 11 7 10 10 10 11 11 10 10 8 4 6 2 2 3 1 4 10 11 14 9 5 2 1 7 7 4 2 4 6 6
20 20 19 19 19 18 16 16 15 15 16 14 13 12 14 18 12 10 11 11 10 10 9 9 6 6 4 1 1 2 5 7 7 6 5 5 2 6 1 4 7 7 7 7 9
23 23 22 20 19 18 17 17 16 16 15 15 14 12 10 13 13 15 16 11 9 9 9 7 8 5 2 2 4 3 3 4 3 1 1 4 7 0 8 13 8 7 5 5 6
25 23 23 21 20 19 18 17 16 15 15 15 13 9 9 11 11 14 12 11 11 10 9 8 8 4 4 5 4 5 3 5 8 1 1 2 5 2 18 13 9 7 6 5 5
24 24 23 22 21 19 17 15 15 16 16 14 14 6 14 8 8 11 12 10 8 11 8 6 4 3 3 4 5 6 4 4 6 1 3 1 7 5 16 9 11 10 10 10 11
24 23 22 20 19 18 15 12 11 8 16 12 6 7 4 10 10 10 13 14 9 8 5 3 4 8 13 10 2 4 4 5 3 3 0 7 7 4 8 12 11 11 13 15 17
24 23 21 19 18 18 16 9 8 4 9 16 25 21 14 10 8 14 17 12 8 6 6 3 7 9 4 5 5 2 2 5 5 2 6 4 6 3 6 5 7 11 13 16 18
25 23 21 19 19 20 20 19 14 11 7 10 23 24 26 22 13 18 23 11 5 6 8 8 5 6 7 5 6 5 6 4 7 3 1 4 6 4 4 9 10 11 13 14 16
27 25 23 21 20 25 23 15 13 4 4 6 7 8 13 15 7 18 25 11 4 11 7 6 5 6 5 6 7 5 8 5 4 4 4 1 5 3 5 4 5 10 14 14 14
31 29 27 28 15 18 20 14 10 5 6 3 5 7 13 12 11 5 19 8 8 7 7 7 6 6 5 6 8 6 5 5 2 3 1 2 0 5 5 5 6 10 13 15 16
40 33 30 29 30 23 14 13 16 3 12 3 5 6 6 4 3 6 6 5 5 5 1 4 1 5 6 2 4 7 6 6 4 3 1 6 6 4 5 5 6 14 16 15 16
26 37 38 38 38 31 17 23 4 7 2 6 5 6 4 6 4 5 7 6 6 5 6 1 4 2 4 6 3 4 5 1 3 1 5 2 1 7 3 2 9 18 25 20 17
30 32 42 43 39 35 28 7 10 10 11 3 4 5 8 7 5 6 7 7 6 2 3 7 3 9 5 4 7 6 6 5 6 3 3 2 6 5 3 4 9 24 26 21 20
28 28 45 50 46 44 26 13 12 7 9 10 3 4 4 5 6 5 8 7 9 11 6 6 3 2 3 3 2 5 4 4 6 2 2 4 5 2 1 2 10 22 26 24 22
30 30 36 43 50 44 18 16 10 7 7 6 15 8 11 9 8 8 11 7 7 12 5 7 3 0 2 4 4 4 7 3 2 2 4 5 5 5 6 8 6 13 25 26 24
39 15 20 30 44 25 13 13 13 10 11 12 15 10 8 9 9 7 9 3 7 7 7 6 3 2 4 6 8 3 3 3 4 4 5 2 5 6 7 10 14 20 29 29 27
29 4 17 31 12 3 16 15 14 14 13 7 3 5 10 13 10 8 13 6 14 15 11 8 5 4 6 3 3 0 6 6 5 5 2 2 8 4 4 15 23 25 30 28 26
14 11 21 32 8 12 2 4 8 7 9 7 7 5 3 9 6 6 8 3 12 9 11 9 2 2 5 2 2 4 5 3 4 4 8 5 6 3 4 9 19 21 26 26 24
9 3 6 17 6 13 7 4 4 3 3 4 4 3 3 2 2 9 6 2 4 6 5 9 5 7 9 5 6 5 6 6 6 5 5 15 12 3 4 6 10 20 24 23 19
7 3 7 4 7 10 12 7 5 5 2 4 2 6 6 5 2 4 3 4 3 4 3 5 7 5 2 3 3 3 6 14 13 16 11 13 12 7 9 9 16 21 23 24 18
3 4 3 3 20 15 13 10 10 5 6 4 4 9 9 5 6 7 7 2 4 1 3 2 2 4 2 1 3 3 8 6 14 3 3 2 12 7 13 15 11 17 26 30 20
6 4 3 2 2 11 10 17 19 17 13 12 13 3 12 18 9 6 10 8 10 9 7 5 6 3 5 3 4 8 12 12 6 6 9 12 13 4 6 12 19 20 20 21 15
Wind_Direction
269 271 275 276 279 283 289 294 297 300 302 305 307 311 311 312 310 309 310 288 247 222 223 222 216 235 359 39 41 82 62 173 227 155 244 358 16 309 324 277 307 319 345 317 307
267 266 266 267 269 272 278 284 288 292 296 298 301 305 308 311 312 306 290 270 236 210 186 176 170 84 62 53 24 76 104 220 212 208 253 323 342 323 332 318 289 326 330 325 300
260 261 263 265 270 274 277 280 283 287 291 293 296 301 307 316 321 303 211 162 151 153 151 158 169 341 74 75 39 128 183 214 280 241 288 305 305 200 286 302 324 355 326 351 23
254 255 258 262 266 271 274 277 279 281 283 287 293 298 303 309 304 264 214 205 198 202 221 220 220 151 86 231 190 41 246 223 272 244 295 282 298 278 221 261 324 306 282 4 7
254 255 257 260 264 270 274 276 277 280 284 289 292 295 299 277 256 261 244 234 231 241 241 236 214 176 183 198 174 179 252 239 262 275 279 276 263 268 274 296 98 98 161 6 5
259 257 261 264 267 269 270 272 276 281 285 289 291 291 287 257 262 259 248 246 251 247 234 223 228 208 182 203 180 275 287 288 289 278 270 237 272 246 78 103 91 53 15 2 2
259 261 262 267 270 270 269 269 272 278 282 285 286 287 275 265 263 259 257 249 241 234 226 219 215 189 171 173 271 328 334 324 264 272 218 177 247 219 97 32 53 33 20 5 359
257 262 263 264 265 266 266 268 272 276 280 283 285 284 263 262 254 249 245 235 223 216 217 214 204 205 206 143 21 31 51 352 315 135 323 161 259 159 43 1 42 37 28 17 8
258 257 260 261 261 261 263 265 267 272 279 281 280 266 263 254 243 236 226 224 217 210 201 186 170 158 139 98 7 5 234 210 315 35 140 131 268 293 339 2 76 61 51 44 35
257 257 257 258 258 258 260 263 268 274 273 271 255 265 239 234 222 214 209 202 186 184 167 173 153 89 52 114 220 200 213 239 237 307 39 340 268 322 28 65 80 76 73 66 60
257 257 256 254 253 252 254 266 271 269 239 219 236 206 232 217 202 199 191 177 158 168 159 157 128 206 199 200 159 145 180 214 247 224 193 243 249 339 63 83 89 93 92 84 78
254 256 254 248 243 245 242 227 234 281 295 261 247 245 242 209 193 194 183 177 176 178 123 71 223 228 148 160 175 156 168 250 284 284 184 313 281 76 48 64 108 114 102 99 98
253 251 249 242 240 241 239 235 246 283 268 256 240 239 231 223 217 199 190 191 169 149 192 180 208 146 171 164 166 206 196 200 221 346 345 341 286 182 58 103 113 118 120 117 109
250 246 241 234 239 240 241 237 237 262 279 253 215 219 199 198 234 212 199 186 186 189 165 233 251 184 168 196 153 218 204 173 177 122 225 59 279 243 172 149 140 148 145 134 121
246 242 234 230 225 226 237 225 201 181 280 199 158 166 162 181 142 171 181 190 166 169 140 232 179 186 190 191 165 216 118 150 130 127 56 251 293 256 140 201 197 187 167 150 138
246 233 231 227 227 229 215 187 166 111 239 219 138 152 132 183 145 120 159 160 146 128 222 228 211 173 204 104 153 139 79 52 55 92 282 229 184 254 196 195 164 181 182 168 151
262 233 227 226 220 213 194 167 176 205 306 193 186 168 169 163 169 158 164 173 164 139 207 169 212 189 164 88 61 104 111 299 341 24 230 5 188 250 176 149 180 180 184 176 164
254 251 228 229 223 217 191 195 209 211 214 92 127 119 178 159 210 167 137 187 245 159 128 167 201 167 191 192 170 177 163 156 223 210 261 343 233 260 261 296 236 193 178 174 173
249 256 243 228 220 216 188 207 211 182 176 140 93 136 226 214 157 139 192 198 201 187 179 154 259 98 90 126 135 182 179 157 103 39 21 234 282 275 44 46 139 162 174 182 181
241 247 244 234 215 202 200 219 228 203 137 154 194 175 183 192 162 187 177 195 200 184 207 203 117 63 144 109 47 151 158 85 10 178 257 279 273 238 222 202 169 168 187 189 189
236 220 226 229 218 205 216 219 222 219 181 183 208 185 191 172 183 203 200 221 196 169 148 151 125 219 136 207 170 135 174 68 123 149 175 258 253 210 219 177 182 198 196 194 196
221 189 188 189 203 274 223 213 198 194 213 224 220 164 176 171 173 205 200 225 173 145 164 193 140 167 195 139 91 164 194 161 164 216 253 146 257 3 252 179 185 198 200 202 206
176 178 181 183 209 226 323 233 211 165 190 188 198 223 175 179 167 190 189 169 165 159 163 175 198 83 354 32 39 192 205 161 92 79 194 170 259 34 70 164 201 203 206 207 210
186 167 162 203 188 204 198 210 208 187 173 164 166 92 123 210 337 170 179 153 170 176 193 140 144 171 211 187 137 178 195 189 163 190 179 229 253 171 210 211 204 212 215 209 210
210 210 168 186 194 184 169 176 171 198 214 197 194 178 173 162 173 181 161 146 81 138 78 169 192 153 86 101 119 194 188 193 199 222 210 246 228 183 207 207 214 218 211 205 229
175 148 223 294 190 183 164 191 183 179 181 234 235 205 196 192 178 184 147 231 171 95 157 343 109 80 334 89 79 276 235 172 219 187 252 253 257 181 209 218 223 227 221 220 251
211 190 60 297 242 186 202 189 204 199 195 196 213 186 209 221 197 115 151 150 161 156 168 147 129 114 231 112 101 273 222 195 175 188 171 213 238 181 201 211 225 234 233 242 251